Location: Erdweis
(48.5167°N, 15.3500°E)
Time: 06:56:13
(UTC+00:00)

Ariane Rocket - Pass Details

Date: 18 September 2020
Orbit: 761 x 769 km, 98.7° (Epoch: 24 October)

Event Time Altitude Azimuth Distance (km) Brightness Sun altitude
Exits shadow 18:09:46 - 149° (SSE) 2,643 5.4 -11.5°
Reaches altitude 10° 18:10:39 10° 147° (SSE) 2,294 5.0 -11.7°
Maximum altitude 18:15:35 57° 70° (ENE) 897 3.1 -12.5°
Drops below altitude 10° 18:20:35 10° 352° (N) 2,316 5.8 -13.2°
Sets 18:22:56 0° 349° (N) 3,248 6.7 -13.6°
